Station Historical Data
Daily Summary for May 20, 2011 Units:  English    Metric   Both
« Previous Day
Next Day »
Daily Weekly Monthly Yearly Custom
  High: Low: Average:
Temperature: 84.6 °F 60.7 °F 72.5 °F
Dew Point: 63.0 °F 54.6 °F 58 °F
Humidity: 81% 41% 62%
Wind Speed: 9.0mph 0.0mph 3mph
Wind Gust: 12.0mph - -
Wind- - SE
Pressure: 30.03 in 29.91 in -
Precipitation: 0.00 in    
Historical Graphs
 
 
Tabular Data for May 20, 2011
Time Temperature Dew Point Pressure Wind Wind Speed Wind Gust Humidity Rainfall Rate (Hourly) Conditions
00:00 64.3 °F 56.6 °F 30.00 in ENE 2.0 mph 3.0 mph 76% 0.00 in
00:01 64.4 °F 56.7 °F 30.00 in Calm   3.0 mph 76% 0.00 in
00:05 64.3 °F 56.6 °F 30.01 in ESE 1.0 mph 1.0 mph 76% 0.00 in
00:10 64.2 °F 56.5 °F 30.01 in East 1.0 mph 2.0 mph 76% 0.00 in
00:11 64.2 °F 56.5 °F 30.01 in ESE 2.0 mph 2.0 mph 76% 0.00 in
00:16 64.1 °F 56.4 °F 30.01 in ENE 2.0 mph 3.0 mph 76% 0.00 in
00:21 64.0 °F 56.7 °F 30.01 in ESE 1.0 mph 2.0 mph 77% 0.00 in
00:26 63.9 °F 56.6 °F 30.01 in ESE 2.0 mph 2.0 mph 77% 0.00 in
00:29 63.8 °F 56.5 °F 30.01 in ESE 2.0 mph 2.0 mph 77% 0.00 in
00:31 63.7 °F 56.4 °F 30.01 in East 2.0 mph 3.0 mph 77% 0.00 in
00:34 63.6 °F 56.3 °F 30.01 in Calm   2.0 mph 77% 0.00 in
00:37 63.5 °F 56.5 °F 30.01 in Calm   1.0 mph 78% 0.00 in
00:42 63.4 °F 56.4 °F 30.01 in ESE 1.0 mph 2.0 mph 78% 0.00 in
00:47 63.4 °F 56.4 °F 30.01 in ESE 1.0 mph 1.0 mph 78% 0.00 in
00:52 63.3 °F 56.3 °F 30.01 in ESE 1.0 mph 2.0 mph 78% 0.00 in
00:57 63.3 °F 56.3 °F 30.01 in ESE 1.0 mph 1.0 mph 78% 0.00 in
00:58 63.2 °F 56.2 °F 30.01 in East 1.0 mph 2.0 mph 78% 0.00 in
01:03 63.3 °F 56.3 °F 30.01 in ESE 1.0 mph 2.0 mph 78% 0.00 in
01:08 63.3 °F 56.3 °F 30.01 in ESE 2.0 mph 2.0 mph 78% 0.00 in
01:13 63.4 °F 56.4 °F 30.01 in ENE 2.0 mph 3.0 mph 78% 0.00 in
01:14 63.4 °F 56.4 °F 30.01 in East 3.0 mph 3.0 mph 78% 0.00 in
01:19 63.5 °F 56.2 °F 30.02 in East 3.0 mph 3.0 mph 77% 0.00 in
01:24 63.6 °F 56.3 °F 30.02 in NE 1.0 mph 3.0 mph 77% 0.00 in
01:29 63.4 °F 56.1 °F 30.02 in NE 2.0 mph 2.0 mph 77% 0.00 in
01:33 63.3 °F 56.0 °F 30.02 in NE 2.0 mph 3.0 mph 77% 0.00 in
01:34 63.2 °F 55.9 °F 30.02 in ENE 1.0 mph 3.0 mph 77% 0.00 in
01:35 63.2 °F 55.9 °F 30.02 in ENE 1.0 mph 3.0 mph 77% 0.00 in
01:40 63.1 °F 55.8 °F 30.02 in ESE 1.0 mph 3.0 mph 77% 0.00 in
01:45 62.9 °F 55.9 °F 30.01 in SE 2.0 mph 3.0 mph 78% 0.00 in
01:50 62.5 °F 55.9 °F 30.01 in ESE 3.0 mph 3.0 mph 79% 0.00 in
01:51 62.4 °F 55.8 °F 30.01 in ESE 2.0 mph 3.0 mph 79% 0.00 in
01:52 62.4 °F 55.8 °F 30.01 in SE 2.0 mph 3.0 mph 79% 0.00 in
01:56 62.3 °F 55.7 °F 30.01 in SE 2.0 mph 3.0 mph 79% 0.00 in
01:58 62.2 °F 55.6 °F 30.01 in SE 2.0 mph 3.0 mph 79% 0.00 in
02:03 62.2 °F 55.6 °F 30.01 in East 2.0 mph 3.0 mph 79% 0.00 in
02:08 62.2 °F 55.6 °F 30.01 in Calm   3.0 mph 79% 0.00 in
02:13 62.3 °F 55.7 °F 30.02 in ENE 1.0 mph 3.0 mph 79% 0.00 in
02:18 62.5 °F 55.6 °F 30.02 in ENE 1.0 mph 3.0 mph 78% 0.00 in
02:23 62.7 °F 55.8 °F 30.02 in ENE 1.0 mph 4.0 mph 78% 0.00 in
02:28 62.9 °F 55.6 °F 30.02 in NE 2.0 mph 3.0 mph 77% 0.00 in
02:29 62.9 °F 55.6 °F 30.02 in ENE 2.0 mph 3.0 mph 77% 0.00 in
02:33 62.6 °F 55.7 °F 30.02 in NE 1.0 mph 3.0 mph 78% 0.00 in
02:34 62.5 °F 55.6 °F 30.02 in NE 2.0 mph 3.0 mph 78% 0.00 in
02:36 62.2 °F 55.3 °F 30.02 in NNE 2.0 mph 2.0 mph 78% 0.00 in
02:39 61.8 °F 55.2 °F 30.02 in NNE 2.0 mph 3.0 mph 79% 0.00 in
02:44 61.3 °F 55.1 °F 30.02 in NE 2.0 mph 3.0 mph 80% 0.00 in
02:49 61.1 °F 55.2 °F 30.02 in NE 2.0 mph 3.0 mph 81% 0.00 in
02:54 61.1 °F 55.2 °F 30.02 in NE 3.0 mph 4.0 mph 81% 0.00 in
02:55 61.1 °F 55.2 °F 30.02 in NE 3.0 mph 4.0 mph 81% 0.00 in
03:00 61.2 °F 55.0 °F 30.02 in NE 1.0 mph 3.0 mph 80% 0.00 in
03:01 61.2 °F 55.0 °F 30.02 in ENE 1.0 mph 2.0 mph 80% 0.00 in
03:05 61.3 °F 55.1 °F 30.02 in East 1.0 mph 2.0 mph 80% 0.00 in
03:10 61.4 °F 55.2 °F 30.01 in East 1.0 mph 1.0 mph 80% 0.00 in
03:15 61.1 °F 54.9 °F 30.01 in ESE 1.0 mph 2.0 mph 80% 0.00 in
03:16 61.1 °F 54.9 °F 30.01 in SE 2.0 mph 2.0 mph 80% 0.00 in
03:21 60.7 °F 54.8 °F 30.01 in SE 2.0 mph 2.0 mph 81% 0.00 in
03:27 60.8 °F 54.9 °F 30.01 in ESE 3.0 mph 4.0 mph 81% 0.00 in
03:29 60.9 °F 54.7 °F 30.00 in ESE 4.0 mph 4.0 mph 80% 0.00 in
03:32 61.3 °F 55.1 °F 30.00 in SE 2.0 mph 5.0 mph 80% 0.00 in
03:35 61.6 °F 55.0 °F 30.00 in SE 3.0 mph 4.0 mph 79% 0.00 in
03:37 61.6 °F 55.0 °F 30.00 in ESE 2.0 mph 3.0 mph 79% 0.00 in
03:40 61.7 °F 55.1 °F 30.00 in ESE 2.0 mph 4.0 mph 79% 0.00 in
03:45 61.5 °F 54.9 °F 30.00 in ESE 1.0 mph 2.0 mph 79% 0.00 in
03:50 61.7 °F 54.8 °F 30.00 in ESE 2.0 mph 4.0 mph 78% 0.00 in
03:51 61.7 °F 54.8 °F 30.00 in SE 2.0 mph 4.0 mph 78% 0.00 in
03:56 61.7 °F 55.1 °F 30.00 in ESE 1.0 mph 2.0 mph 79% 0.00 in
03:57 61.7 °F 55.1 °F 30.00 in ESE 1.0 mph 2.0 mph 79% 0.00 in
04:02 61.6 °F 55.0 °F 30.00 in ESE 2.0 mph 2.0 mph 79% 0.00 in
04:07 61.4 °F 54.8 °F 30.00 in ESE 1.0 mph 3.0 mph 79% 0.00 in
04:12 61.2 °F 54.6 °F 30.00 in SE 1.0 mph 2.0 mph 79% 0.00 in
04:17 60.8 °F 54.6 °F 30.00 in ESE 2.0 mph 2.0 mph 80% 0.00 in
04:22 60.8 °F 54.6 °F 30.00 in SE 2.0 mph 3.0 mph 80% 0.00 in
04:27 61.0 °F 54.8 °F 30.00 in ESE 2.0 mph 2.0 mph 80% 0.00 in
04:28 61.0 °F 54.8 °F 30.00 in SE 2.0 mph 2.0 mph 80% 0.00 in
04:32 61.1 °F 54.9 °F 30.00 in ESE 3.0 mph 3.0 mph 80% 0.00 in
04:33 61.1 °F 54.9 °F 30.00 in SE 2.0 mph 3.0 mph 80% 0.00 in
04:34 61.1 °F 54.9 °F 30.00 in ESE 2.0 mph 3.0 mph 80% 0.00 in
04:39 61.2 °F 55.0 °F 30.00 in ESE 3.0 mph 4.0 mph 80% 0.00 in
04:44 61.3 °F 55.1 °F 30.00 in SE 2.0 mph 3.0 mph 80% 0.00 in
04:49 61.4 °F 55.2 °F 30.00 in ESE 3.0 mph 4.0 mph 80% 0.00 in
04:54 61.3 °F 55.1 °F 30.00 in ESE 3.0 mph 4.0 mph 80% 0.00 in
04:55 61.3 °F 55.1 °F 30.00 in ESE 4.0 mph 4.0 mph 80% 0.00 in
04:59 61.1 °F 54.9 °F 30.00 in ESE 1.0 mph 2.0 mph 80% 0.00 in
05:04 60.9 °F 55.0 °F 30.00 in ESE 2.0 mph 2.0 mph 81% 0.00 in
05:05 60.9 °F 55.0 °F 30.00 in SE 2.0 mph 2.0 mph 81% 0.00 in
05:10 60.8 °F 54.9 °F 30.00 in SE 2.0 mph 2.0 mph 81% 0.00 in
05:15 61.1 °F 55.2 °F 30.00 in ESE 2.0 mph 5.0 mph 81% 0.00 in
05:20 61.3 °F 55.1 °F 29.99 in ESE 4.0 mph 4.0 mph 80% 0.00 in
05:26 61.5 °F 55.3 °F 30.00 in SE 3.0 mph 4.0 mph 80% 0.00 in
05:31 61.5 °F 55.3 °F 29.99 in ESE 3.0 mph 5.0 mph 80% 0.00 in
05:32 61.5 °F 55.3 °F 29.99 in ESE 4.0 mph 4.0 mph 80% 0.00 in
05:36 61.7 °F 55.1 °F 29.99 in ESE 4.0 mph 5.0 mph 79% 0.00 in
05:37 61.8 °F 55.2 °F 29.99 in SE 3.0 mph 5.0 mph 79% 0.00 in
05:42 62.1 °F 55.2 °F 29.99 in SE 5.0 mph 7.0 mph 78% 0.00 in
05:47 62.6 °F 54.9 °F 29.99 in ESE 6.0 mph 6.0 mph 76% 0.00 in
05:52 62.8 °F 55.1 °F 29.99 in ESE 4.0 mph 6.0 mph 76% 0.00 in
05:53 62.8 °F 55.1 °F 29.99 in East 4.0 mph 6.0 mph 76% 0.00 in
05:58 63.0 °F 55.0 °F 29.99 in ESE 6.0 mph 7.0 mph 75% 0.00 in
06:03 63.1 °F 55.1 °F 29.99 in SE 4.0 mph 7.0 mph 75% 0.00 in
06:04 63.0 °F 55.0 °F 29.99 in SE 5.0 mph 7.0 mph 75% 0.00 in
06:09 63.1 °F 54.7 °F 29.99 in ESE 4.0 mph 6.0 mph 74% 0.00 in
06:10 63.0 °F 55.0 °F 29.99 in SE 4.0 mph 6.0 mph 75% 0.00 in
06:14 63.0 °F 55.0 °F 29.99 in ESE 4.0 mph 6.0 mph 75% 0.00 in
06:19 62.5 °F 54.8 °F 29.99 in East 3.0 mph 5.0 mph 76% 0.00 in
06:24 62.0 °F 54.7 °F 29.99 in East 2.0 mph 3.0 mph 77% 0.00 in
06:29 61.7 °F 54.8 °F 30.00 in ESE 1.0 mph 2.0 mph 78% 0.00 in
06:30 61.6 °F 54.7 °F 30.00 in ESE 2.0 mph 2.0 mph 78% 0.00 in
06:34 61.5 °F 54.6 °F 30.00 in East 1.0 mph 3.0 mph 78% 0.00 in
06:35 61.5 °F 54.6 °F 30.00 in East 2.0 mph 3.0 mph 78% 0.00 in
06:36 61.5 °F 54.6 °F 30.00 in East 1.0 mph 2.0 mph 78% 0.00 in
06:41 61.4 °F 54.8 °F 30.00 in East 2.0 mph 2.0 mph 79% 0.00 in
06:46 61.2 °F 54.6 °F 30.00 in ESE 2.0 mph 2.0 mph 79% 0.00 in
06:51 61.1 °F 54.9 °F 30.00 in ESE 2.0 mph 3.0 mph 80% 0.00 in
06:56 60.9 °F 54.7 °F 30.00 in ESE 1.0 mph 2.0 mph 80% 0.00 in
07:01 60.9 °F 54.7 °F 30.00 in SE 2.0 mph 2.0 mph 80% 0.00 in
07:06 60.9 °F 54.7 °F 30.00 in SE 1.0 mph 2.0 mph 80% 0.00 in
07:07 60.9 °F 54.7 °F 30.00 in SE 2.0 mph 2.0 mph 80% 0.00 in
07:11 60.9 °F 54.7 °F 30.00 in SSE 1.0 mph 3.0 mph 80% 0.00 in
07:16 61.1 °F 54.9 °F 30.00 in SSE 1.0 mph 2.0 mph 80% 0.00 in
07:17 61.1 °F 54.9 °F 30.00 in SE 1.0 mph 2.0 mph 80% 0.00 in
07:22 61.3 °F 54.7 °F 30.00 in SSE 2.0 mph 2.0 mph 79% 0.00 in
07:27 61.6 °F 55.0 °F 30.00 in SSE 3.0 mph 3.0 mph 79% 0.00 in
07:29 61.7 °F 55.1 °F 30.00 in SSE 2.0 mph 3.0 mph 79% 0.00 in
07:33 62.1 °F 55.2 °F 30.00 in SSE 3.0 mph 4.0 mph 78% 0.00 in
07:35 62.3 °F 55.4 °F 30.01 in SSE 5.0 mph 5.0 mph 78% 0.00 in
07:36 62.4 °F 55.5 °F 30.00 in SE 2.0 mph 5.0 mph 78% 0.00 in
07:41 62.6 °F 55.7 °F 30.00 in SSE 3.0 mph 4.0 mph 78% 0.00 in
07:46 63.0 °F 55.7 °F 30.00 in SSE 5.0 mph 5.0 mph 77% 0.00 in
07:51 63.5 °F 56.2 °F 30.00 in SE 3.0 mph 3.0 mph 77% 0.00 in
07:52 63.6 °F 56.3 °F 30.00 in SE 3.0 mph 3.0 mph 77% 0.00 in
07:53 63.7 °F 56.4 °F 30.00 in SE 2.0 mph 4.0 mph 77% 0.00 in
07:58 64.0 °F 55.9 °F 30.01 in SE 5.0 mph 5.0 mph 75% 0.00 in
08:03 64.4 °F 56.3 °F 30.01 in SE 2.0 mph 4.0 mph 75% 0.00 in
08:08 64.9 °F 56.4 °F 30.01 in ESE 3.0 mph 4.0 mph 74% 0.00 in
08:13 65.4 °F 56.9 °F 30.02 in ESE 3.0 mph 4.0 mph 74% 0.00 in
08:14 65.4 °F 56.9 °F 30.02 in ESE 4.0 mph 4.0 mph 74% 0.00 in
08:19 65.7 °F 57.2 °F 30.02 in East 2.0 mph 3.0 mph 74% 0.00 in
08:24 65.9 °F 57.4 °F 30.02 in ESE 3.0 mph 3.0 mph 74% 0.00 in
08:29 66.2 °F 57.3 °F 30.02 in East 3.0 mph 3.0 mph 73% 0.00 in
08:34 66.2 °F 57.3 °F 30.02 in ENE 2.0 mph 4.0 mph 73% 0.00 in
08:35 66.1 °F 57.2 °F 30.02 in ESE 2.0 mph 3.0 mph 73% 0.00 in
08:38 66.3 °F 57.8 °F 30.02 in ESE 3.0 mph 3.0 mph 74% 0.00 in
08:43 66.5 °F 57.6 °F 30.02 in SE 1.0 mph 3.0 mph 73% 0.00 in
08:48 66.9 °F 58.3 °F 30.02 in SSW 2.0 mph 4.0 mph 74% 0.00 in
08:53 67.6 °F 57.9 °F 30.02 in SE 2.0 mph 6.0 mph 71% 0.00 in
08:54 67.6 °F 58.3 °F 30.02 in SE 4.0 mph 6.0 mph 72% 0.00 in
08:56 67.8 °F 58.1 °F 30.02 in SE 2.0 mph 4.0 mph 71% 0.00 in
08:58 68.2 °F 58.5 °F 30.02 in SSE 3.0 mph 4.0 mph 71% 0.00 in
09:03 68.5 °F 57.5 °F 30.03 in ESE 2.0 mph 4.0 mph 68% 0.00 in
09:08 68.6 °F 58.4 °F 30.03 in SE 1.0 mph 5.0 mph 70% 0.00 in
09:14 69.2 °F 58.2 °F 30.03 in SE 5.0 mph 7.0 mph 68% 0.00 in
09:19 69.5 °F 57.7 °F 30.03 in ESE 2.0 mph 4.0 mph 66% 0.00 in
09:24 70.1 °F 58.7 °F 30.03 in ESE 4.0 mph 7.0 mph 67% 0.00 in
09:29 70.4 °F 58.9 °F 30.03 in SE 3.0 mph 7.0 mph 67% 0.00 in
09:34 70.8 °F 57.2 °F 30.03 in SSE 5.0 mph 8.0 mph 62% 0.00 in
09:37 71.1 °F 58.8 °F 30.03 in South 3.0 mph 6.0 mph 65% 0.00 in
09:42 71.4 °F 58.2 °F 30.03 in SSE 4.0 mph 7.0 mph 63% 0.00 in
09:47 71.6 °F 57.9 °F 30.03 in SSE 7.0 mph 8.0 mph 62% 0.00 in
09:52 72.1 °F 57.5 °F 30.03 in SSE 6.0 mph 8.0 mph 60% 0.00 in
09:53 72.2 °F 58.9 °F 30.03 in SSE 6.0 mph 8.0 mph 63% 0.00 in
09:54 72.3 °F 57.7 °F 30.03 in SE 5.0 mph 8.0 mph 60% 0.00 in
09:58 72.4 °F 58.2 °F 30.03 in SSW 6.0 mph 6.0 mph 61% 0.00 in
10:03 72.8 °F 57.7 °F 30.03 in SE 4.0 mph 6.0 mph 59% 0.00 in
10:08 72.9 °F 59.1 °F 30.03 in ESE 5.0 mph 7.0 mph 62% 0.00 in
10:13 73.4 °F 58.2 °F 30.03 in ESE 5.0 mph 6.0 mph 59% 0.00 in
10:18 73.8 °F 57.1 °F 30.03 in ESE 8.0 mph 9.0 mph 56% 0.00 in
10:23 73.7 °F 58.0 °F 30.03 in South 2.0 mph 8.0 mph 58% 0.00 in
10:28 74.1 °F 59.8 °F 30.03 in SSW 5.0 mph 8.0 mph 61% 0.00 in
10:29 74.1 °F 59.3 °F 30.02 in SW 6.0 mph 8.0 mph 60% 0.00 in
10:30 74.2 °F 58.5 °F 30.03 in SSW 4.0 mph 7.0 mph 58% 0.00 in
10:33 74.4 °F 58.7 °F 30.02 in ESE 4.0 mph 8.0 mph 58% 0.00 in
10:34 74.5 °F 58.8 °F 30.02 in SSE 6.0 mph 8.0 mph 58% 0.00 in
10:35 74.5 °F 58.8 °F 30.02 in SSW 8.0 mph 8.0 mph 58% 0.00 in
10:36 74.5 °F 58.8 °F 30.02 in South 7.0 mph 8.0 mph 58% 0.00 in
10:40 75.2 °F 59.4 °F 30.02 in SE 6.0 mph 6.0 mph 58% 0.00 in
10:45 75.5 °F 58.7 °F 30.02 in South 6.0 mph 9.0 mph 56% 0.00 in
10:50 75.8 °F 59.0 °F 30.02 in SSE 3.0 mph 9.0 mph 56% 0.00 in
10:51 75.8 °F 59.0 °F 30.02 in SSW 4.0 mph 9.0 mph 56% 0.00 in
10:54 75.6 °F 57.3 °F 30.02 in SSE 5.0 mph 7.0 mph 53% 0.00 in
10:56 75.7 °F 58.9 °F 30.03 in SSE 4.0 mph 7.0 mph 56% 0.00 in
10:57 75.8 °F 58.5 °F 30.02 in SSE 6.0 mph 6.0 mph 55% 0.00 in
10:59 75.9 °F 58.6 °F 30.03 in SW 7.0 mph 8.0 mph 55% 0.00 in
11:04 76.1 °F 58.8 °F 30.02 in SSE 3.0 mph 7.0 mph 55% 0.00 in
11:05 76.1 °F 58.8 °F 30.02 in SSE 2.0 mph 7.0 mph 55% 0.00 in
11:09 76.4 °F 59.1 °F 30.02 in SSE 4.0 mph 7.0 mph 55% 0.00 in
11:14 76.6 °F 59.2 °F 30.02 in SSE 4.0 mph 8.0 mph 55% 0.00 in
11:15 76.5 °F 58.1 °F 30.02 in SE 3.0 mph 8.0 mph 53% 0.00 in
11:20 76.9 °F 58.5 °F 30.02 in South 3.0 mph 8.0 mph 53% 0.00 in
11:25 76.8 °F 59.9 °F 30.02 in SE 7.0 mph 9.0 mph 56% 0.00 in
11:30 76.9 °F 60.0 °F 30.02 in SE 5.0 mph 8.0 mph 56% 0.00 in
11:31 76.8 °F 58.9 °F 30.02 in SE 4.0 mph 8.0 mph 54% 0.00 in
11:35 77.0 °F 59.6 °F 30.02 in SSE 4.0 mph 7.0 mph 55% 0.00 in
11:36 77.1 °F 59.2 °F 30.02 in SSW 3.0 mph 7.0 mph 54% 0.00 in
11:41 77.2 °F 58.8 °F 30.02 in ESE 3.0 mph 7.0 mph 53% 0.00 in
11:46 77.9 °F 59.9 °F 30.02 in SE 6.0 mph 7.0 mph 54% 0.00 in
11:51 78.1 °F 60.1 °F 30.01 in SSE 7.0 mph 7.0 mph 54% 0.00 in
11:52 78.1 °F 60.1 °F 30.01 in SSE 5.0 mph 7.0 mph 54% 0.00 in
11:56 78.3 °F 58.7 °F 30.01 in SE 6.0 mph 8.0 mph 51% 0.00 in
11:57 78.2 °F 58.6 °F 30.01 in ESE 6.0 mph 8.0 mph 51% 0.00 in
12:02 78.2 °F 61.7 °F 30.02 in SE 5.0 mph 9.0 mph 57% 0.00 in
12:07 78.5 °F 59.4 °F 30.01 in SE 6.0 mph 7.0 mph 52% 0.00 in
12:12 78.7 °F 58.5 °F 30.01 in SE 4.0 mph 7.0 mph 50% 0.00 in
12:17 79.0 °F 58.8 °F 30.01 in SSE 5.0 mph 7.0 mph 50% 0.00 in
12:22 79.3 °F 61.2 °F 30.01 in SE 8.0 mph 9.0 mph 54% 0.00 in
12:27 79.2 °F 60.1 °F 30.01 in SE 6.0 mph 10.0 mph 52% 0.00 in
12:28 79.2 °F 60.1 °F 30.01 in SE 5.0 mph 10.0 mph 52% 0.00 in
12:32 79.7 °F 59.4 °F 30.00 in SE 5.0 mph 8.0 mph 50% 0.00 in
12:33 79.7 °F 59.4 °F 30.00 in SSE 7.0 mph 8.0 mph 50% 0.00 in
12:34 79.9 °F 60.7 °F 30.01 in SE 7.0 mph 10.0 mph 52% 0.00 in
12:38 79.9 °F 57.9 °F 30.01 in SSW 6.0 mph 7.0 mph 47% 0.00 in
12:43 80.3 °F 58.8 °F 30.01 in SW 2.0 mph 6.0 mph 48% 0.00 in
12:44 80.3 °F 60.5 °F 30.00 in SE 4.0 mph 6.0 mph 51% 0.00 in
12:49 80.7 °F 60.3 °F 30.00 in SSE 3.0 mph 6.0 mph 50% 0.00 in
12:55 80.4 °F 60.1 °F 30.00 in SSE 5.0 mph 10.0 mph 50% 0.00 in
12:58 80.7 °F 63.0 °F 30.00 in ESE 6.0 mph 9.0 mph 55% 0.00 in
13:00 80.8 °F 58.7 °F 30.00 in SSW 4.0 mph 9.0 mph 47% 0.00 in
13:03 80.8 °F 58.1 °F 30.01 in SSE 6.0 mph 8.0 mph 46% 0.00 in
13:08 81.1 °F 58.4 °F 30.00 in SSE 4.0 mph 8.0 mph 46% 0.00 in
13:13 81.5 °F 61.1 °F 30.00 in SW 1.0 mph 3.0 mph 50% 0.00 in
13:18 82.0 °F 62.1 °F 30.00 in SW 3.0 mph 6.0 mph 51% 0.00 in
13:23 81.8 °F 59.0 °F 30.00 in South 6.0 mph 6.0 mph 46% 0.00 in
13:28 81.9 °F 59.1 °F 30.00 in SW 5.0 mph 7.0 mph 46% 0.00 in
13:29 81.9 °F 59.1 °F 30.00 in SW 5.0 mph 7.0 mph 46% 0.00 in
13:33 81.8 °F 59.6 °F 30.00 in SW 4.0 mph 8.0 mph 47% 0.00 in
13:36 81.9 °F 60.9 °F 30.00 in WSW 3.0 mph 6.0 mph 49% 0.00 in
13:39 82.2 °F 58.1 °F 30.00 in SE 4.0 mph 9.0 mph 44% 0.00 in
13:44 82.0 °F 59.2 °F 29.99 in SE 2.0 mph 6.0 mph 46% 0.00 in
13:46 82.0 °F 59.2 °F 29.99 in South 4.0 mph 8.0 mph 46% 0.00 in
13:49 82.2 °F 62.3 °F 29.99 in South 4.0 mph 5.0 mph 51% 0.00 in
13:54 82.4 °F 60.8 °F 29.99 in SSW 2.0 mph 5.0 mph 48% 0.00 in
13:55 82.4 °F 61.9 °F 29.99 in SSW 3.0 mph 5.0 mph 50% 0.00 in
13:57 82.5 °F 60.3 °F 29.98 in SSW 2.0 mph 4.0 mph 47% 0.00 in
14:00 82.5 °F 62.6 °F 29.98 in ESE 7.0 mph 10.0 mph 51% 0.00 in
14:02 82.2 °F 61.7 °F 29.98 in ESE 9.0 mph 11.0 mph 50% 0.00 in
14:07 81.7 °F 58.9 °F 29.98 in Calm   8.0 mph 46% 0.00 in
14:08 81.7 °F 58.9 °F 29.98 in Calm   8.0 mph 46% 0.00 in
14:13 82.3 °F 59.5 °F 29.98 in South 3.0 mph 6.0 mph 46% 0.00 in
14:18 82.8 °F 62.3 °F 29.98 in SE 5.0 mph 10.0 mph 50% 0.00 in
14:23 82.3 °F 58.9 °F 29.98 in ESE 4.0 mph 12.0 mph 45% 0.00 in
14:28 82.4 °F 59.6 °F 29.97 in SSE 3.0 mph 7.0 mph 46% 0.00 in
14:29 82.5 °F 59.7 °F 29.97 in SSE 2.0 mph 7.0 mph 46% 0.00 in
14:30 82.5 °F 59.7 °F 29.97 in East 7.0 mph 7.0 mph 46% 0.00 in
14:34 82.4 °F 60.8 °F 29.97 in SE 6.0 mph 9.0 mph 48% 0.00 in
14:35 82.4 °F 59.0 °F 29.97 in ESE 6.0 mph 9.0 mph 45% 0.00 in
14:36 82.4 °F 60.2 °F 29.97 in South 3.0 mph 7.0 mph 47% 0.00 in
14:41 82.7 °F 61.6 °F 29.97 in SE 3.0 mph 9.0 mph 49% 0.00 in
14:42 82.7 °F 61.6 °F 29.97 in SE 4.0 mph 9.0 mph 49% 0.00 in
14:47 82.8 °F 60.5 °F 29.97 in SE 5.0 mph 7.0 mph 47% 0.00 in
14:52 83.2 °F 59.7 °F 29.97 in SSW 6.0 mph 9.0 mph 45% 0.00 in
14:57 83.4 °F 61.7 °F 29.97 in East 6.0 mph 9.0 mph 48% 0.00 in
14:58 83.3 °F 59.1 °F 29.97 in ESE 6.0 mph 8.0 mph 44% 0.00 in
15:03 83.5 °F 60.6 °F 29.97 in South 3.0 mph 9.0 mph 46% 0.00 in
15:08 83.2 °F 60.3 °F 29.97 in ESE 9.0 mph 10.0 mph 46% 0.00 in
15:13 82.9 °F 58.8 °F 29.97 in SE 5.0 mph 9.0 mph 44% 0.00 in
15:18 82.8 °F 59.9 °F 29.97 in SE 6.0 mph 6.0 mph 46% 0.00 in
15:23 83.3 °F 59.1 °F 29.97 in SSW 5.0 mph 8.0 mph 44% 0.00 in
15:28 83.3 °F 59.8 °F 29.97 in East 3.0 mph 8.0 mph 45% 0.00 in
15:29 83.3 °F 58.5 °F 29.96 in NE 2.0 mph 8.0 mph 43% 0.00 in
15:34 83.6 °F 60.7 °F 29.96 in SSW 4.0 mph 10.0 mph 46% 0.00 in
15:37 83.9 °F 59.7 °F 29.96 in SSE 9.0 mph 9.0 mph 44% 0.00 in
15:39 83.9 °F 59.0 °F 29.96 in SE 6.0 mph 9.0 mph 43% 0.00 in
15:44 84.1 °F 61.7 °F 29.96 in South 5.0 mph 8.0 mph 47% 0.00 in
15:49 84.1 °F 58.5 °F 29.95 in SSE 6.0 mph 8.0 mph 42% 0.00 in
15:54 84.0 °F 59.1 °F 29.95 in SSW 9.0 mph 9.0 mph 43% 0.00 in
15:56 84.0 °F 60.4 °F 29.95 in South 4.0 mph 9.0 mph 45% 0.00 in
15:59 84.1 °F 61.1 °F 29.95 in SE 4.0 mph 6.0 mph 46% 0.00 in
16:01 84.2 °F 58.0 °F 29.95 in SSE 4.0 mph 7.0 mph 41% 0.00 in
16:06 84.2 °F 59.3 °F 29.94 in SE 6.0 mph 8.0 mph 43% 0.00 in
16:11 84.3 °F 58.1 °F 29.95 in SSE 4.0 mph 11.0 mph 41% 0.00 in
16:16 84.2 °F 59.3 °F 29.95 in SSW 6.0 mph 8.0 mph 43% 0.00 in
16:21 84.3 °F 58.7 °F 29.94 in SW 7.0 mph 7.0 mph 42% 0.00 in
16:26 84.4 °F 59.5 °F 29.94 in SE 2.0 mph 5.0 mph 43% 0.00 in
16:27 84.4 °F 60.8 °F 29.94 in ESE 7.0 mph 7.0 mph 45% 0.00 in
16:28 84.3 °F 58.7 °F 29.94 in SE 9.0 mph 9.0 mph 42% 0.00 in
16:33 84.2 °F 60.0 °F 29.94 in SSE 5.0 mph 9.0 mph 44% 0.00 in
16:37 84.3 °F 59.4 °F 29.94 in SE 4.0 mph 5.0 mph 43% 0.00 in
16:38 84.4 °F 59.5 °F 29.94 in SSE 3.0 mph 4.0 mph 43% 0.00 in
16:43 84.6 °F 59.0 °F 29.93 in SE 2.0 mph 4.0 mph 42% 0.00 in
16:48 84.5 °F 58.9 °F 29.93 in SSE 4.0 mph 7.0 mph 42% 0.00 in
16:53 84.5 °F 60.8 °F 29.93 in SSE 3.0 mph 5.0 mph 45% 0.00 in
16:54 84.6 °F 60.3 °F 29.93 in ESE 4.0 mph 5.0 mph 44% 0.00 in
16:59 84.1 °F 58.5 °F 29.93 in ENE 6.0 mph 8.0 mph 42% 0.00 in
17:04 83.8 °F 60.8 °F 29.93 in East 6.0 mph 8.0 mph 46% 0.00 in
17:09 83.9 °F 59.7 °F 29.93 in SE 5.0 mph 7.0 mph 44% 0.00 in
17:14 84.0 °F 62.2 °F 29.93 in SE 7.0 mph 7.0 mph 48% 0.00 in
17:19 83.8 °F 59.6 °F 29.93 in SSE 6.0 mph 9.0 mph 44% 0.00 in
17:24 83.8 °F 62.0 °F 29.93 in SE 5.0 mph 10.0 mph 48% 0.00 in
17:29 83.9 °F 60.3 °F 29.93 in SSE 4.0 mph 5.0 mph 45% 0.00 in
17:30 83.9 °F 60.3 °F 29.93 in SE 6.0 mph 6.0 mph 45% 0.00 in
17:34 84.1 °F 58.5 °F 29.93 in SSE 3.0 mph 5.0 mph 42% 0.00 in
17:36 84.1 °F 61.1 °F 29.93 in SE 4.0 mph 5.0 mph 46% 0.00 in
17:41 84.3 °F 59.4 °F 29.93 in SSE 5.0 mph 7.0 mph 43% 0.00 in
17:46 84.0 °F 58.5 °F 29.93 in ESE 8.0 mph 9.0 mph 42% 0.00 in
17:51 83.8 °F 59.6 °F 29.93 in ESE 7.0 mph 7.0 mph 44% 0.00 in
17:52 83.9 °F 59.7 °F 29.93 in SE 6.0 mph 7.0 mph 44% 0.00 in
17:56 83.9 °F 59.0 °F 29.93 in SSE 5.0 mph 8.0 mph 43% 0.00 in
17:59 83.7 °F 60.1 °F 29.93 in SE 5.0 mph 8.0 mph 45% 0.00 in
18:04 83.6 °F 58.1 °F 29.93 in SE 5.0 mph 6.0 mph 42% 0.00 in
18:09 83.6 °F 59.4 °F 29.93 in SSE 3.0 mph 7.0 mph 44% 0.00 in
18:14 83.5 °F 58.0 °F 29.93 in SE 4.0 mph 9.0 mph 42% 0.00 in
18:20 83.4 °F 57.9 °F 29.93 in SE 5.0 mph 8.0 mph 42% 0.00 in
18:25 83.4 °F 59.2 °F 29.93 in SE 6.0 mph 7.0 mph 44% 0.00 in
18:30 83.2 °F 57.1 °F 29.92 in ESE 6.0 mph 8.0 mph 41% 0.00 in
18:31 83.2 °F 57.1 °F 29.92 in SE 6.0 mph 8.0 mph 41% 0.00 in
18:36 83.1 °F 58.3 °F 29.92 in SE 3.0 mph 6.0 mph 43% 0.00 in
18:38 83.0 °F 57.6 °F 29.93 in SE 3.0 mph 5.0 mph 42% 0.00 in
18:43 83.2 °F 60.3 °F 29.92 in SE 6.0 mph 6.0 mph 46% 0.00 in
18:48 82.9 °F 57.5 °F 29.92 in ESE 5.0 mph 7.0 mph 42% 0.00 in
18:53 82.6 °F 59.8 °F 29.92 in SSE 2.0 mph 4.0 mph 46% 0.00 in
18:54 82.6 °F 60.3 °F 29.92 in SSE 3.0 mph 4.0 mph 47% 0.00 in
18:58 82.7 °F 60.4 °F 29.92 in South 5.0 mph 6.0 mph 47% 0.00 in
18:59 82.8 °F 58.7 °F 29.92 in SE 3.0 mph 6.0 mph 44% 0.00 in
19:04 82.8 °F 60.5 °F 29.92 in SE 5.0 mph 5.0 mph 47% 0.00 in
19:09 82.8 °F 59.9 °F 29.92 in SE 4.0 mph 5.0 mph 46% 0.00 in
19:14 82.4 °F 57.7 °F 29.92 in SE 5.0 mph 6.0 mph 43% 0.00 in
19:19 82.1 °F 58.7 °F 29.92 in SSE 4.0 mph 6.0 mph 45% 0.00 in
19:24 81.8 °F 58.4 °F 29.92 in SE 3.0 mph 6.0 mph 45% 0.00 in
19:29 81.7 °F 58.3 °F 29.92 in SE 3.0 mph 5.0 mph 45% 0.00 in
19:30 81.7 °F 58.3 °F 29.92 in SSE 2.0 mph 5.0 mph 45% 0.00 in
19:31 81.6 °F 59.4 °F 29.92 in SE 3.0 mph 5.0 mph 47% 0.00 in
19:35 81.5 °F 59.3 °F 29.92 in SE 2.0 mph 2.0 mph 47% 0.00 in
19:36 81.5 °F 59.3 °F 29.92 in SE 2.0 mph 3.0 mph 47% 0.00 in
19:41 81.4 °F 58.7 °F 29.92 in SE 2.0 mph 3.0 mph 46% 0.00 in
19:46 81.4 °F 59.3 °F 29.92 in ESE 2.0 mph 3.0 mph 47% 0.00 in
19:52 81.1 °F 60.7 °F 29.92 in ESE 1.0 mph 2.0 mph 50% 0.00 in
19:53 81.0 °F 60.6 °F 29.92 in ESE 2.0 mph 2.0 mph 50% 0.00 in
19:56 80.8 °F 60.4 °F 29.92 in ESE 1.0 mph 2.0 mph 50% 0.00 in
19:57 80.7 °F 60.9 °F 29.92 in East 2.0 mph 2.0 mph 51% 0.00 in
19:58 80.6 °F 60.3 °F 29.92 in ESE 2.0 mph 2.0 mph 50% 0.00 in
20:03 80.1 °F 60.9 °F 29.92 in ESE 1.0 mph 2.0 mph 52% 0.00 in
20:04 80.1 °F 60.9 °F 29.92 in ESE 1.0 mph 2.0 mph 52% 0.00 in
20:09 79.7 °F 61.1 °F 29.92 in East 1.0 mph 2.0 mph 53% 0.00 in
20:14 79.1 °F 61.0 °F 29.92 in East 2.0 mph 2.0 mph 54% 0.00 in
20:19 78.6 °F 60.1 °F 29.92 in ESE 1.0 mph 2.0 mph 53% 0.00 in
20:24 78.2 °F 60.2 °F 29.92 in Calm   1.0 mph 54% 0.00 in
20:29 77.7 °F 60.3 °F 29.92 in Calm   1.0 mph 55% 0.00 in
20:30 77.6 °F 60.2 °F 29.92 in Calm     55% 0.00 in
20:32 77.4 °F 60.0 °F 29.92 in Calm     55% 0.00 in
20:35 77.2 °F 59.8 °F 29.92 in Calm   1.0 mph 55% 0.00 in
20:38 77.0 °F 60.1 °F 29.92 in Calm   1.0 mph 56% 0.00 in
20:40 76.8 °F 60.4 °F 29.92 in Calm     57% 0.00 in
20:45 76.1 °F 60.8 °F 29.92 in Calm     59% 0.00 in
20:50 75.4 °F 61.0 °F 29.93 in Calm     61% 0.00 in
20:55 75.2 °F 59.4 °F 29.92 in ESE 1.0 mph 1.0 mph 58% 0.00 in
20:56 75.3 °F 59.5 °F 29.92 in ESE 1.0 mph 1.0 mph 58% 0.00 in
21:01 75.5 °F 59.2 °F 29.92 in Calm     57% 0.00 in
21:06 75.3 °F 59.5 °F 29.92 in Calm   1.0 mph 58% 0.00 in
21:11 75.3 °F 59.5 °F 29.92 in East 1.0 mph 2.0 mph 58% 0.00 in
21:16 75.0 °F 59.7 °F 29.91 in East 1.0 mph 1.0 mph 59% 0.00 in
21:21 74.9 °F 59.6 °F 29.91 in Calm   2.0 mph 59% 0.00 in
21:26 74.5 °F 60.2 °F 29.91 in East 1.0 mph 1.0 mph 61% 0.00 in
21:31 74.2 °F 60.4 °F 29.91 in Calm   1.0 mph 62% 0.00 in
21:32 74.1 °F 60.3 °F 29.91 in Calm   1.0 mph 62% 0.00 in
21:33 74.0 °F 60.2 °F 29.91 in Calm   1.0 mph 62% 0.00 in
21:37 73.7 °F 59.9 °F 29.92 in Calm     62% 0.00 in
21:42 73.7 °F 59.9 °F 29.91 in ENE 2.0 mph 2.0 mph 62% 0.00 in
21:47 73.6 °F 59.3 °F 29.91 in NE 1.0 mph 3.0 mph 61% 0.00 in
21:52 73.8 °F 59.5 °F 29.91 in Calm   1.0 mph 61% 0.00 in
21:55 73.7 °F 59.4 °F 29.91 in Calm     61% 0.00 in
21:57 73.4 °F 60.0 °F 29.91 in East 1.0 mph 1.0 mph 63% 0.00 in
21:58 73.3 °F 60.0 °F 29.91 in ESE 1.0 mph 1.0 mph 63% 0.00 in
22:03 73.2 °F 59.9 °F 29.91 in ENE 2.0 mph 4.0 mph 63% 0.00 in
22:08 73.2 °F 59.4 °F 29.92 in Calm   1.0 mph 62% 0.00 in
22:13 73.1 °F 59.3 °F 29.92 in ENE 1.0 mph 1.0 mph 62% 0.00 in
22:15 73.1 °F 59.3 °F 29.92 in Calm   1.0 mph 62% 0.00 in
22:20 73.0 °F 59.2 °F 29.91 in East 2.0 mph 3.0 mph 62% 0.00 in
22:25 73.0 °F 59.7 °F 29.91 in East 1.0 mph 3.0 mph 63% 0.00 in
22:26 73.0 °F 59.7 °F 29.91 in Calm   3.0 mph 63% 0.00 in
22:31 72.6 °F 59.7 °F 29.92 in SE 1.0 mph 1.0 mph 64% 0.00 in
22:32 72.5 °F 60.1 °F 29.92 in SE 1.0 mph 1.0 mph 65% 0.00 in
22:33 72.3 °F 59.9 °F 29.92 in ESE 1.0 mph 1.0 mph 65% 0.00 in
22:36 72.1 °F 59.7 °F 29.92 in Calm   2.0 mph 65% 0.00 in
22:38 71.9 °F 59.5 °F 29.92 in East 1.0 mph 2.0 mph 65% 0.00 in
22:43 71.8 °F 59.4 °F 29.92 in Calm   1.0 mph 65% 0.00 in
22:49 71.6 °F 59.2 °F 29.92 in Calm   1.0 mph 65% 0.00 in
22:54 71.3 °F 59.4 °F 29.92 in SE 1.0 mph 1.0 mph 66% 0.00 in
22:59 71.2 °F 59.3 °F 29.91 in ESE 2.0 mph 3.0 mph 66% 0.00 in
23:04 70.9 °F 59.4 °F 29.91 in SE 1.0 mph 2.0 mph 67% 0.00 in
23:08 70.4 °F 59.3 °F 29.91 in ESE 1.0 mph 1.0 mph 68% 0.00 in
23:13 70.1 °F 59.5 °F 29.92 in ESE 1.0 mph 1.0 mph 69% 0.00 in
23:18 70.4 °F 59.3 °F 29.92 in Calm   2.0 mph 68% 0.00 in
23:19 70.4 °F 59.3 °F 29.92 in Calm   2.0 mph 68% 0.00 in
23:24 70.5 °F 59.0 °F 29.93 in Calm     67% 0.00 in
23:29 70.0 °F 59.0 °F 29.93 in Calm     68% 0.00 in
23:30 69.8 °F 59.2 °F 29.93 in ESE 1.0 mph 1.0 mph 69% 0.00 in
23:34 69.5 °F 58.9 °F 29.93 in ESE 1.0 mph 1.0 mph 69% 0.00 in
23:35 69.5 °F 58.9 °F 29.92 in ESE 1.0 mph 1.0 mph 69% 0.00 in
23:36 69.4 °F 58.8 °F 29.93 in ESE 1.0 mph 1.0 mph 69% 0.00 in
23:41 69.3 °F 59.1 °F 29.92 in ESE 1.0 mph 1.0 mph 70% 0.00 in
23:46 69.1 °F 58.9 °F 29.92 in Calm     70% 0.00 in
23:51 68.6 °F 59.2 °F 29.92 in Calm     72% 0.00 in
23:56 67.9 °F 58.5 °F 29.92 in Calm     72% 0.00 in
23:57 67.9 °F 58.5 °F 29.92 in Calm     72% 0.00 in
Compliments of Weather Underground